Theta_e
341 338 337 338 337 339 333 327 333 336 335 335 335 336 336 337 338 337 337 337 337 337 338 337 337 338 338 338 338 338 337 337 336 336 335 333 333 333 332 333 334 334 334 335 336 336 337 336 336 336 337 337 337 337 336 335 334 333 332 330 329 330 330 330 329 329 331 332 333 334 334 333 332 332 333 332 330 329 329 329 331 332 333 332 332
340 337 336 337 338 339 333 329 334 336 335 335 335 334 334 335 336 335 335 334 335 336 337 337 337 337 337 338 337 337 336 336 335 335 334 333 333 333 333 333 333 334 333 334 335 335 335 335 335 334 336 336 336 336 333 332 332 331 330 329 329 330 331 332 332 332 332 332 333 333 333 333 333 332 332 330 329 328 328 329 330 331 332 331 332
339 335 336 337 338 337 332 332 334 335 335 335 334 333 333 334 335 334 333 334 334 335 337 337 337 337 337 337 336 336 335 335 334 333 334 332 332 332 332 332 332 332 332 333 334 334 334 333 333 333 333 334 334 334 332 331 331 330 330 329 330 331 332 333 333 333 333 332 332 332 332 333 333 332 330 329 329 329 329 330 331 331 331 331 331
338 334 335 336 337 335 329 329 331 334 334 334 333 332 333 334 335 334 334 335 335 336 337 337 337 336 335 335 336 335 335 334 333 333 333 332 331 331 331 332 332 332 332 333 332 332 332 332 332 332 332 333 333 332 331 330 330 330 329 330 330 332 332 333 333 334 334 333 332 332 332 332 333 332 330 330 329 330 330 331 331 331 331 331 331
338 335 336 336 335 331 324 324 329 333 335 334 333 333 333 334 335 335 336 336 337 337 336 337 336 334 334 335 336 335 335 334 333 333 332 332 332 331 331 331 331 331 332 332 332 331 332 331 331 331 331 331 331 331 330 330 330 329 329 330 331 332 333 333 333 334 334 334 333 332 332 332 332 331 330 330 330 330 331 330 330 330 330 331 330
338 338 338 336 333 326 319 320 328 334 335 334 333 333 333 333 334 335 336 336 337 336 336 336 335 334 333 334 335 335 335 333 332 332 332 333 333 332 331 331 332 332 332 332 331 331 331 331 331 330 330 329 330 330 329 329 329 328 328 329 331 332 333 333 333 334 334 334 333 333 332 332 331 332 331 330 330 330 330 330 330 330 329 329 328
338 340 340 336 330 321 317 318 327 334 334 334 333 333 333 333 333 333 335 335 336 336 336 335 334 334 333 333 334 334 334 333 331 331 332 333 333 332 331 331 331 331 331 331 331 331 331 331 330 330 330 330 330 329 329 328 327 327 328 330 331 331 332 332 333 334 333 333 333 332 332 332 332 332 331 330 330 329 329 329 329 328 327 327 327
340 341 340 336 327 318 316 315 322 331 332 333 333 332 332 332 333 334 333 334 335 335 335 335 335 334 332 332 333 333 333 333 332 331 331 332 333 332 331 330 330 330 330 330 330 330 330 330 330 330 330 330 329 328 328 328 327 328 329 330 330 330 331 331 332 333 333 333 332 331 331 331 330 330 330 330 329 329 328 328 328 327 325 324 324
341 341 340 335 324 317 316 314 318 328 332 332 332 333 332 333 334 333 332 333 334 335 335 334 333 332 330 329 331 332 332 331 330 330 330 332 333 332 331 331 331 331 330 330 330 330 330 329 329 329 328 329 328 327 328 328 328 329 329 329 329 329 329 329 330 331 331 331 331 331 330 329 328 328 329 328 328 327 327 326 326 326 324 322 322
340 341 339 331 322 317 316 314 315 325 331 332 332 333 332 333 333 333 333 334 335 335 335 333 332 330 328 328 331 331 331 330 329 329 330 332 332 332 332 332 332 332 331 330 330 330 330 329 329 328 327 327 328 327 328 328 328 329 328 328 328 327 328 328 329 330 330 330 329 329 328 327 327 327 327 326 326 325 325 325 325 325 324 322 322
340 341 338 328 321 318 316 314 314 324 330 331 332 332 333 332 333 333 334 335 333 333 333 332 331 329 328 330 330 330 330 329 329 329 330 331 331 332 332 331 332 332 332 330 330 330 330 330 329 328 327 326 326 327 327 326 327 328 327 326 326 326 327 327 328 329 329 328 328 328 327 327 327 327 326 326 325 324 324 324 325 325 324 323 323
341 341 336 328 321 318 316 314 314 321 328 330 330 332 332 331 332 333 333 332 330 332 331 329 329 328 329 330 329 329 329 328 328 329 329 331 332 332 331 330 331 331 330 329 329 330 330 329 328 328 328 327 326 327 327 325 326 327 326 326 327 327 327 327 328 329 328 328 328 327 327 326 327 327 327 326 325 325 324 324 324 324 324 323 323
341 340 336 329 321 319 318 315 314 316 323 327 328 330 331 331 332 333 333 331 329 329 329 328 330 328 328 328 329 329 328 328 328 328 329 331 331 331 331 331 331 331 330 329 328 329 329 327 327 328 328 327 327 326 326 325 326 327 326 325 326 326 328 328 328 329 329 328 328 327 326 326 326 327 327 326 325 324 323 323 323 323 323 322 322
341 340 337 330 322 321 320 317 315 313 318 323 325 327 330 331 332 334 333 332 330 329 329 330 332 330 327 327 328 329 328 328 328 328 329 330 330 331 331 331 331 330 330 328 326 327 328 326 326 328 328 328 326 324 325 326 327 327 325 325 326 326 328 328 328 328 328 328 327 326 326 325 326 326 326 325 324 323 323 322 322 322 321 321 320
341 340 336 331 324 321 322 319 317 314 314 319 324 325 328 331 332 333 333 331 331 330 329 329 331 331 329 326 326 328 328 328 328 328 327 328 329 330 331 331 330 330 329 328 324 324 326 326 327 328 327 327 325 323 324 325 326 326 325 325 326 326 327 327 328 327 327 327 326 326 325 325 325 326 325 323 322 322 322 321 321 321 320 320 320
341 340 337 333 327 322 322 322 319 316 314 315 320 322 325 330 332 333 332 331 330 330 329 329 331 331 330 327 325 326 327 329 329 327 326 327 328 330 330 331 331 330 329 328 324 324 326 326 327 327 327 327 324 324 324 324 325 325 324 325 326 326 326 326 326 326 326 326 326 325 324 323 324 324 324 322 321 321 321 320 320 320 320 320 319
341 341 339 336 332 326 323 323 321 318 315 314 316 318 323 327 331 332 331 330 329 328 328 329 330 330 330 328 325 324 326 329 330 329 327 326 327 329 330 330 331 331 330 329 325 324 326 326 326 326 327 326 324 324 324 324 324 324 324 324 325 325 324 325 324 324 325 325 325 325 324 321 321 323 323 321 321 321 321 320 320 319 319 318 317
340 341 341 339 336 332 326 323 323 321 318 315 314 316 319 321 327 330 329 328 328 326 326 327 328 329 328 326 324 324 324 328 330 329 328 326 325 328 330 330 330 331 330 329 326 322 325 326 326 326 326 326 325 324 324 324 324 324 324 324 323 323 324 324 324 323 324 324 324 324 322 320 321 323 321 320 320 320 320 320 319 319 319 318 317
340 340 341 340 339 337 333 325 323 323 321 318 315 315 316 316 321 326 325 326 327 325 324 324 325 326 324 322 322 324 324 326 328 328 327 326 325 327 329 328 329 330 329 328 325 322 323 326 326 326 326 325 325 324 324 324 324 325 324 324 323 324 324 324 323 324 324 323 323 323 320 319 320 321 320 320 320 319 319 319 318 318 318 317 316
339 340 340 340 340 339 338 331 327 327 326 326 319 315 315 313 316 321 323 325 326 325 324 323 322 322 320 318 319 320 322 323 325 326 326 325 324 325 326 326 326 327 327 327 325 321 321 325 326 325 326 325 325 325 325 325 324 325 325 324 324 324 323 323 323 323 323 322 322 322 318 318 321 320 319 319 319 319 319 318 317 317 317 316 316
338 339 339 339 340 339 339 336 333 333 333 334 327 319 316 314 314 316 319 324 326 325 324 324 323 321 321 322 321 321 322 323 322 322 323 323 323 323 323 324 323 324 325 324 324 322 321 323 324 324 325 325 325 325 324 325 325 325 324 323 324 323 323 323 323 323 323 323 323 321 318 318 321 320 319 319 319 318 318 318 317 317 316 316 316
338 338 338 339 339 339 340 338 337 336 335 336 333 327 320 316 315 314 315 319 323 324 323 324 323 320 324 328 328 327 328 326 322 320 321 320 321 320 320 322 321 321 321 321 323 321 320 321 322 324 324 324 325 325 324 324 324 324 324 324 324 323 323 323 323 323 323 324 324 321 318 318 320 319 318 319 319 317 317 317 316 316 316 316 315
338 338 338 338 338 339 339 339 338 336 336 335 335 333 326 321 321 317 314 315 317 322 324 323 324 321 325 331 329 329 329 327 323 321 320 315 317 318 318 319 319 320 318 318 321 320 319 320 323 323 324 325 326 326 325 324 323 323 323 324 324 323 322 322 323 323 324 324 323 321 318 319 319 319 319 319 319 317 317 316 316 316 316 315 315
337 337 337 338 338 338 339 339 338 337 337 336 335 335 330 328 330 325 320 319 314 318 326 327 327 325 326 330 330 329 329 328 323 319 319 315 314 315 314 315 315 316 317 317 318 320 320 320 322 322 323 325 326 326 326 325 324 324 323 324 324 323 322 322 323 323 324 323 323 321 318 319 320 319 320 319 318 318 317 316 316 316 315 315 315
336 336 337 337 337 338 338 338 339 337 337 337 336 335 333 331 333 331 328 328 319 318 328 329 329 329 327 330 331 328 328 329 323 318 323 322 317 315 315 317 316 314 319 322 319 318 320 320 320 321 323 324 325 325 325 325 325 325 324 324 324 324 322 322 323 323 324 323 323 322 319 319 320 319 319 319 318 318 316 316 316 315 315 315 314
336 336 336 337 337 337 337 338 338 338 337 337 336 335 335 332 333 333 331 332 328 325 330 329 330 330 326 329 331 327 327 330 324 322 327 327 324 323 322 324 323 317 319 324 323 318 321 322 320 321 324 324 324 324 324 324 325 324 324 324 324 323 323 323 323 323 323 323 323 323 321 319 319 319 319 319 319 317 316 316 315 315 314 314 314
335 336 336 336 336 337 337 337 338 338 337 336 337 336 335 334 333 333 331 332 332 330 331 330 330 329 325 328 331 326 326 330 326 325 328 327 326 327 326 326 325 320 318 323 325 321 321 323 321 322 324 323 324 324 323 323 324 325 324 324 324 323 323 323 323 323 323 323 323 323 322 320 319 319 319 319 319 317 317 316 315 315 315 314 314
336 335 335 336 335 336 337 337 338 338 338 337 337 337 335 335 334 334 332 332 332 331 331 330 330 330 326 327 329 327 327 329 328 326 326 327 327 327 327 326 324 322 320 322 324 319 318 322 323 323 324 322 321 321 320 321 322 323 323 323 323 323 323 323 323 323 323 323 322 322 322 321 320 319 318 319 320 319 318 318 316 315 315 315 314
336 335 335 335 335 335 336 337 337 338 338 337 337 337 336 335 335 335 333 332 332 332 331 331 330 331 329 327 327 328 328 328 328 328 326 326 327 326 326 325 324 323 321 321 322 318 316 320 323 323 322 321 320 320 320 320 321 321 322 323 323 323 323 322 322 323 323 323 322 322 322 322 321 320 319 318 319 319 319 318 317 316 316 315 315
336 336 335 335 335 335 336 336 337 337 337 337 337 337 337 335 335 335 334 333 333 332 332 332 331 331 331 329 327 327 328 328 328 328 327 326 327 326 326 325 324 323 321 320 319 317 317 319 321 321 321 320 321 322 321 321 321 320 321 322 322 322 322 322 322 322 322 322 322 322 322 322 321 321 320 318 318 319 319 319 318 318 317 316 316
337 336 336 335 335 335 336 336 336 337 337 337 337 337 337 336 335 335 334 333 332 332 332 332 332 331 331 331 329 327 327 328 328 328 328 327 327 327 325 324 324 323 321 319 318 318 318 319 321 320 320 321 320 320 321 321 321 320 321 320 320 320 319 320 322 322 322 322 322 322 321 321 321 321 321 320 319 319 319 319 319 319 318 318 317
337 336 336 336 336 336 336 335 336 336 337 337 337 337 337 336 336 335 335 334 333 332 333 333 332 332 331 331 330 329 328 328 328 328 328 327 327 327 326 325 324 324 323 322 320 319 318 318 320 320 319 320 321 320 321 321 319 319 321 321 320 319 318 317 320 321 321 322 321 321 321 321 321 321 321 320 320 319 318 319 319 320 320 319 318
337 337 336 336 336 336 336 336 335 336 336 336 336 337 337 337 336 335 335 335 334 333 332 333 333 332 331 331 331 330 329 327 328 328 328 328 327 327 326 326 325 325 325 324 322 322 320 318 318 318 317 317 318 318 319 320 318 317 319 321 321 320 319 318 318 318 319 321 321 321 321 321 321 321 321 320 320 320 319 318 318 319 320 320 319
336 336 336 336 336 336 336 336 336 336 336 336 336 336 336 337 337 336 335 334 335 335 333 332 333 332 331 332 331 330 330 329 328 328 328 328 327 327 327 326 326 325 325 325 324 324 323 320 318 318 318 316 315 314 315 317 317 316 317 319 320 320 319 319 318 317 318 320 321 320 320 320 321 321 321 321 320 320 320 319 318 318 319 320 320
336 337 336 336 336 336 335 336 336 336 336 336 336 336 336 336 336 337 336 335 335 335 334 333 332 332 332 332 331 331 330 330 329 328 327 328 327 327 327 327 327 326 325 325 326 325 324 323 321 321 321 320 318 316 315 316 317 318 318 318 319 319 319 320 319 319 318 319 319 320 320 321 321 320 320 320 320 320 320 320 319 319 318 319 320
336 336 336 336 336 335 335 336 335 336 337 336 335 335 336 336 336 337 336 336 335 334 334 334 332 332 332 331 331 331 330 329 329 329 328 327 327 327 326 327 327 326 326 326 326 327 326 324 323 322 322 322 321 320 318 318 318 319 320 320 320 320 320 320 320 319 319 319 318 318 319 320 320 321 320 320 320 320 320 320 320 319 319 318 319
335 335 336 336 336 335 335 335 335 335 336 336 335 335 335 335 335 336 336 336 336 335 334 334 333 332 332 331 331 331 330 329 329 329 328 327 327 326 326 327 326 326 326 326 327 327 327 325 324 323 322 322 321 320 320 319 319 320 320 320 320 320 320 320 320 320 319 319 318 317 318 318 318 319 319 320 320 320 319 320 320 320 319 319 318
335 335 335 335 335 335 335 335 335 335 335 336 335 334 335 335 336 335 335 336 336 336 335 334 334 332 332 331 331 331 330 329 328 328 328 328 327 327 326 326 326 326 326 326 327 327 326 325 325 324 323 322 321 321 320 320 320 320 320 320 320 320 320 320 320 320 319 319 318 318 318 317 317 317 318 318 318 318 318 319 319 319 319 319 319
336 336 335 335 335 334 335 334 334 334 334 334 335 334 334 334 335 335 335 335 335 336 335 335 334 333 332 331 331 332 331 330 329 328 328 327 328 328 328 327 326 326 326 327 327 326 326 325 325 324 323 322 322 322 321 320 320 320 320 320 319 319 320 320 320 319 319 319 318 318 317 317 317 317 317 317 316 317 317 318 318 318 318 318 319
337 336 336 336 335 335 335 334 334 334 334 334 334 334 333 333 334 334 334 335 335 335 335 335 335 334 333 332 332 332 331 331 330 329 328 328 328 328 328 328 328 327 327 327 327 327 326 326 325 324 323 322 322 322 321 320 320 320 319 319 319 319 319 319 319 319 318 318 318 318 318 317 317 317 317 317 316 317 317 317 317 317 318 318 318
337 336 336 336 336 335 335 335 333 334 334 334 334 333 333 333 333 333 333 333 334 334 334 335 335 334 334 333 333 332 332 331 329 328 328 329 329 329 328 328 328 328 327 327 327 327 326 326 326 324 324 322 322 322 321 320 319 319 319 319 319 319 319 319 319 319 319 319 318 318 318 318 318 317 317 316 316 316 316 316 317 317 317 317 317
335 336 336 336 336 335 335 335 334 333 334 334 334 333 333 333 333 333 332 332 332 333 333 334 334 334 333 333 333 332 332 331 330 329 329 330 330 330 329 328 328 328 327 327 327 327 326 326 325 325 324 323 323 323 322 320 319 318 318 317 318 319 320 319 320 320 320 320 319 318 318 318 318 318 317 317 316 316 316 316 316 316 316 316 316
332 332 333 334 335 335 335 335 336 335 334 333 333 333 332 332 332 332 332 332 332 331 332 332 333 333 333 333 332 332 332 332 332 332 332 331 331 330 329 328 328 327 327 327 327 327 327 327 326 325 324 324 323 323 322 321 320 319 317 317 317 319 320 320 319 320 320 320 319 319 318 318 318 318 317 317 316 316 316 316 316 316 316 316 316
328 329 330 332 333 334 334 335 335 335 334 333 333 333 333 333 333 333 332 332 331 331 331 331 332 333 333 333 332 331 331 331 332 332 332 331 330 329 329 329 328 327 327 327 327 328 327 328 327 326 325 323 323 323 323 321 321 320 318 318 317 317 320 320 318 319 320 319 319 318 318 318 318 318 317 317 317 317 317 316 316 316 316 316 315
320 324 326 329 330 331 333 333 334 334 334 333 333 333 333 333 333 333 332 332 331 331 331 332 332 332 333 333 332 332 331 332 332 331 331 331 330 331 330 330 328 328 328 328 327 327 327 327 327 326 324 323 323 323 322 321 320 320 319 319 319 319 321 319 318 320 320 319 319 318 318 317 317 317 317 317 317 317 317 317 316 316 316 316 316
314 318 322 326 328 329 330 331 332 333 333 333 332 332 333 333 333 332 332 332 331 332 332 332 332 332 332 332 332 332 332 332 332 332 332 331 332 332 331 330 329 329 330 329 328 327 328 327 326 325 324 324 323 322 322 321 321 321 320 320 321 322 321 319 319 321 320 319 319 319 318 317 316 316 316 316 316 316 316 316 315 315 316 315 315
312 313 318 322 325 326 328 329 330 331 332 332 332 331 332 332 332 332 331 331 331 331 331 331 331 331 331 330 330 330 330 331 331 332 332 332 332 332 331 331 330 330 330 329 328 328 328 327 326 326 325 325 324 323 322 322 321 320 320 319 319 319 319 318 318 319 319 319 318 319 319 317 316 316 315 315 315 315 315 316 315 315 315 315 314
312 311 313 317 320 322 325 327 328 329 330 331 331 331 330 331 331 331 330 331 331 330 330 330 330 329 329 329 329 329 330 330 330 331 331 331 331 331 331 331 331 330 330 329 329 329 328 327 327 327 326 325 324 323 322 322 320 320 320 319 318 318 317 316 315 316 316 317 317 317 317 317 316 316 316 315 315 315 316 316 316 315 315 315 315
312 311 311 312 315 317 321 325 326 327 328 329 330 329 329 328 328 329 330 330 330 329 329 329 329 328 328 328 328 328 329 328 329 329 329 330 330 330 330 330 330 329 329 329 329 329 328 328 328 327 326 325 324 323 322 321 321 320 320 319 317 316 315 315 314 313 313 315 316 316 316 316 316 316 316 316 316 316 316 317 316 315 315 315 315
312 311 311 310 311 314 318 321 322 324 325 325 327 328 327 327 327 328 329 329 328 328 328 328 328 328 328 328 328 327 327 327 327 327 327 327 327 328 328 328 327 328 328 328 327 328 328 328 327 327 326 325 324 324 323 322 322 321 321 319 318 316 314 313 313 312 312 312 314 314 314 314 314 315 316 316 316 317 317 316 316 315 315 315 314
314 313 312 313 313 314 317 320 321 323 323 323 326 327 325 326 326 327 327 327 327 327 327 327 326 326 326 326 326 325 325 325 324 324 324 325 324 325 325 326 326 326 327 327 326 326 326 327 327 327 326 326 325 324 323 322 322 321 321 320 319 318 316 315 314 313 312 311 312 313 313 313 313 314 316 316 316 316 316 316 316 316 316 315 314
Wind_Speed
14 13 12 9 10 8 9 11 12 12 11 12 11 10 11 12 10 10 10 11 12 12 13 13 14 14 15 16 16 17 19 19 19 19 19 19 20 19 19 19 18 19 19 19 18 17 16 16 16 16 16 16 17 18 19 20 20 21 21 22 23 24 24 24 24 24 23 23 22 22 21 20 20 20 20 19 18 17 16 17 18 19 20 20 20
15 14 12 11 11 9 9 11 13 11 12 12 11 11 13 13 10 10 10 9 11 11 12 13 14 15 15 15 16 17 18 19 19 19 19 19 19 17 18 18 18 19 19 18 17 17 17 16 16 15 16 15 16 17 18 18 19 20 20 21 23 25 25 25 24 22 21 21 22 21 21 20 19 19 19 18 18 17 17 18 18 19 20 19 20
16 15 12 11 11 9 10 12 12 11 12 12 12 13 15 14 11 9 10 10 10 11 12 13 15 15 15 15 15 16 17 18 18 18 18 19 19 18 18 19 18 18 18 18 17 17 17 17 17 16 16 15 15 16 17 17 18 19 19 20 23 24 23 22 22 21 20 19 20 21 21 20 19 19 19 19 19 19 19 19 19 20 19 19 19
17 16 12 11 10 9 10 11 12 13 13 13 14 15 15 14 11 10 11 11 11 12 13 13 14 15 15 15 15 16 17 18 17 17 17 17 18 18 17 18 18 18 18 18 18 18 17 17 17 17 16 16 15 15 16 16 17 18 19 20 22 22 21 20 19 20 20 19 18 20 21 20 19 19 20 21 21 21 20 19 19 19 19 18 18
18 15 12 11 10 8 9 10 12 14 14 13 14 14 14 13 12 12 12 11 12 13 13 13 14 14 15 15 15 15 16 17 17 17 16 17 18 17 17 17 17 17 18 18 18 18 17 17 17 17 16 16 15 15 15 16 17 18 19 20 21 21 20 19 19 18 18 17 16 17 18 19 19 19 20 22 23 22 20 19 18 18 19 19 18
18 15 12 10 10 8 9 11 13 14 14 13 13 13 14 13 12 12 11 12 13 13 13 14 14 14 15 14 14 15 16 17 17 16 15 17 17 17 17 17 17 17 17 17 17 17 17 17 16 16 16 15 15 15 15 15 16 16 18 19 20 20 20 19 18 17 16 16 16 16 18 19 20 19 20 20 20 19 17 16 15 15 17 18 18
18 17 13 10 10 9 10 12 13 15 15 14 13 13 14 13 12 11 10 11 12 12 12 13 13 14 14 14 14 14 15 16 16 15 15 15 16 16 16 15 16 17 17 17 16 16 16 16 16 16 16 16 15 15 15 15 15 16 17 19 19 19 19 19 18 16 15 16 16 17 19 20 20 19 18 18 17 16 15 14 13 13 13 15 17
17 17 13 11 10 10 10 12 13 15 16 16 15 14 13 13 11 10 9 9 11 11 12 13 13 13 13 13 14 13 14 15 15 15 14 14 15 16 16 16 15 16 16 16 15 15 15 15 16 16 15 15 15 15 15 15 17 18 19 19 19 18 17 18 18 15 16 17 17 18 18 19 19 17 16 16 15 15 15 14 13 12 11 11 13
18 15 12 12 11 11 11 11 12 14 15 16 16 14 13 13 10 9 9 9 10 12 14 13 12 12 11 12 13 13 13 14 15 15 14 14 14 15 16 16 15 15 14 14 14 14 15 15 15 15 14 15 14 15 15 15 17 19 20 19 18 17 16 16 16 15 16 17 17 16 16 16 16 16 14 13 13 12 12 13 14 13 13 12 13
18 15 12 13 12 11 12 11 12 15 15 16 16 14 13 13 11 9 10 11 12 13 14 12 12 12 11 13 14 13 13 14 14 14 14 13 14 14 14 14 14 14 14 14 14 14 14 14 14 14 14 14 14 14 14 15 17 18 18 18 17 16 16 16 15 15 15 16 16 16 15 15 15 14 13 12 12 11 10 11 13 14 14 14 15
18 15 13 14 13 12 12 11 13 15 15 15 16 14 13 14 13 11 11 11 12 13 13 12 12 13 14 15 15 14 14 13 13 13 13 13 13 13 12 12 12 13 14 15 14 14 14 14 13 13 13 13 13 13 13 14 15 15 15 16 16 16 15 15 15 16 16 16 17 16 14 14 14 13 12 12 12 12 12 12 12 13 13 14 14
17 14 13 14 13 13 12 11 13 15 15 15 15 14 13 14 14 11 10 9 9 10 11 12 12 13 15 15 14 14 13 13 13 13 13 13 13 11 11 12 12 13 13 14 14 13 13 13 12 13 13 12 12 12 13 13 13 13 14 15 16 16 15 11 13 15 14 14 13 13 12 12 13 12 12 12 11 11 11 11 12 12 12 13 13
17 14 14 14 13 13 12 11 12 13 15 14 14 15 15 15 14 10 8 8 7 8 9 11 12 12 15 15 14 13 12 12 12 12 12 12 12 11 11 12 12 12 11 12 12 12 12 11 12 12 12 11 11 11 12 12 12 13 14 15 15 15 15 11 11 13 13 14 13 12 12 11 11 10 11 12 11 11 10 11 12 12 12 12 12
15 14 15 14 14 14 12 11 11 12 14 14 13 15 16 15 13 10 8 9 8 9 10 10 11 12 14 14 13 13 12 11 11 12 12 11 12 11 10 10 10 10 10 10 11 11 11 10 11 11 11 10 10 10 11 10 10 12 12 13 14 14 13 12 11 11 11 11 10 10 9 9 9 9 10 11 10 10 10 11 11 11 11 11 11
15 14 15 15 14 14 12 11 10 11 13 13 13 14 16 16 12 10 10 11 10 11 10 9 10 11 13 13 12 12 12 11 10 10 11 11 11 10 10 10 9 9 9 9 9 9 9 10 10 10 9 9 9 10 10 9 9 10 11 12 13 12 11 11 10 10 9 8 7 7 8 9 8 9 10 9 9 9 9 10 10 10 10 11 11
15 14 14 15 14 14 12 10 9 10 11 13 13 13 15 15 12 11 11 10 11 11 9 9 9 10 12 12 11 11 12 12 10 8 9 10 10 10 9 8 9 8 8 8 9 9 9 9 9 8 8 8 8 9 9 9 9 10 10 10 11 11 11 10 9 10 9 7 7 7 8 9 8 9 9 9 8 8 9 9 9 9 9 10 9
15 13 12 14 13 13 12 10 10 9 10 11 12 12 13 14 13 11 10 10 10 10 9 9 9 9 10 10 9 9 10 12 11 9 7 7 8 9 7 6 7 8 9 8 7 8 8 8 8 7 7 7 7 8 9 8 8 9 10 10 9 10 11 10 8 8 8 7 7 7 7 9 8 8 8 8 7 7 8 8 8 8 8 9 9
14 13 11 12 12 11 11 10 9 9 9 10 10 11 11 11 12 11 10 10 9 8 8 7 8 8 8 8 8 8 9 10 10 9 8 7 8 8 7 6 7 7 6 5 6 7 8 8 8 7 6 6 6 7 8 8 7 7 8 9 8 9 10 8 7 8 8 7 6 5 6 7 7 6 7 7 7 7 7 7 7 7 7 8 8
13 13 11 11 12 10 10 10 9 9 8 8 9 9 9 10 11 11 9 10 9 7 8 7 7 7 6 7 8 8 8 8 8 7 6 7 7 7 8 6 6 6 4 4 6 6 6 7 7 6 5 5 5 6 7 7 6 6 6 7 7 8 9 7 7 7 5 4 3 3 5 4 4 5 6 6 6 6 6 6 6 6 7 7 7
12 13 12 12 13 11 8 9 9 7 7 6 7 8 8 9 10 10 9 9 8 7 7 7 7 6 7 7 8 8 7 7 6 5 5 5 6 6 6 4 3 3 3 3 5 5 4 5 5 4 4 5 5 5 6 6 5 5 5 6 7 8 8 5 6 6 4 3 2 3 4 4 5 5 5 5 5 5 4 5 5 5 6 5 5
11 11 11 12 13 12 8 9 10 8 8 5 4 7 8 8 9 8 8 9 8 7 6 5 5 6 8 8 8 8 8 6 4 4 3 3 5 5 4 3 1 1 1 2 3 4 3 4 5 4 3 4 5 5 5 5 4 4 5 6 6 7 6 4 5 5 3 3 2 3 4 5 5 4 4 4 4 4 4 4 4 4 4 4 4
11 11 11 12 12 13 10 11 12 11 11 7 4 5 7 8 8 7 7 8 8 6 5 4 3 6 8 9 7 7 6 4 2 3 3 2 4 3 3 2 1 0 1 1 1 2 3 4 4 4 5 5 6 7 7 5 4 4 5 6 6 6 4 2 4 4 2 2 2 1 4 6 5 4 4 3 3 3 3 3 3 3 3 4 3
12 12 12 13 12 13 12 12 14 13 12 10 7 4 6 7 6 6 6 7 7 7 5 4 2 5 8 9 6 5 4 3 1 1 2 2 3 3 2 1 1 1 0 1 1 2 4 4 4 6 7 7 6 6 6 6 6 5 4 5 6 5 3 2 2 3 2 3 1 0 2 5 5 5 3 2 2 2 2 2 2 2 2 3 2
15 14 14 14 13 14 13 13 13 13 13 12 9 6 5 7 5 3 4 5 6 7 5 4 3 3 7 9 5 6 6 5 3 2 2 1 2 2 1 1 1 1 1 1 2 3 3 3 5 7 7 7 6 3 3 5 5 4 3 4 5 2 2 2 1 1 2 3 2 2 1 4 5 4 0 1 1 1 0 1 0 1 1 2 2
17 16 16 15 15 15 14 14 13 14 14 12 11 9 7 8 7 3 3 3 4 7 6 6 6 6 6 8 4 8 6 6 4 3 3 1 1 2 2 1 2 2 3 3 1 2 2 1 4 6 5 5 5 2 2 3 3 2 2 3 3 2 1 1 1 1 3 4 4 4 3 4 6 3 2 3 2 2 1 1 1 1 2 2 2
18 18 18 17 16 16 15 15 15 14 15 12 11 11 9 9 10 7 5 5 3 5 6 6 7 8 7 6 7 9 7 6 4 5 5 2 2 2 3 2 2 1 3 3 0 0 2 1 2 5 4 2 1 3 5 4 3 3 3 3 3 3 2 2 2 3 4 5 6 6 5 6 6 4 3 4 3 2 2 2 2 3 3 2 3
20 20 19 18 17 17 16 16 15 15 15 13 11 12 12 10 11 10 9 8 6 5 6 7 7 9 8 8 8 8 8 7 4 6 7 5 3 1 2 2 3 2 2 5 4 3 4 4 3 3 2 3 6 7 8 7 7 6 5 5 6 5 4 4 4 5 5 6 8 8 7 7 6 6 5 5 5 5 5 5 5 5 5 4 5
20 20 19 19 19 18 17 17 16 16 15 15 13 12 12 12 11 10 10 11 10 8 6 7 7 8 9 9 8 6 7 7 6 5 8 7 4 3 4 6 6 4 2 4 6 7 5 6 4 4 5 8 9 8 8 8 8 8 7 7 7 7 7 6 6 6 6 7 9 10 9 8 7 8 7 6 8 7 7 7 7 6 6 6 6
19 20 19 19 20 20 18 17 17 17 16 15 14 13 12 13 13 12 12 13 11 9 7 8 9 9 9 9 10 8 7 7 8 6 7 8 7 7 7 7 6 5 5 5 7 7 5 6 6 7 8 8 7 7 7 7 8 8 7 7 8 8 8 8 8 8 8 9 10 11 11 10 9 9 9 8 9 9 8 9 8 7 8 8 8
19 19 19 19 20 21 20 19 18 17 16 16 15 14 13 13 14 13 13 14 13 11 9 9 10 9 9 10 11 11 9 8 9 8 7 8 9 9 9 8 7 7 7 6 7 7 5 6 7 8 8 7 8 7 8 8 8 9 9 10 11 11 10 8 9 10 10 11 11 12 12 12 12 11 12 11 12 11 10 10 11 10 10 10 10
20 20 20 19 20 21 21 20 19 18 18 17 16 16 14 13 13 13 13 14 14 13 12 11 10 9 9 11 11 11 11 9 9 9 9 10 11 11 10 9 9 9 8 7 8 7 6 7 8 9 8 9 9 8 10 10 10 10 11 12 13 14 12 11 11 12 12 13 13 14 14 14 14 14 14 14 14 14 13 12 13 13 13 12 12
20 21 20 19 19 21 21 21 20 19 19 18 17 16 15 14 13 13 13 13 14 15 14 13 12 11 11 12 12 11 12 13 11 10 11 11 12 12 11 10 10 10 9 8 8 8 8 8 9 10 10 10 10 10 10 13 13 11 12 13 14 15 15 13 13 14 15 15 15 15 16 17 17 17 17 16 16 16 16 15 15 16 16 15 14
19 20 21 21 20 20 20 21 21 20 19 19 18 17 16 15 15 14 14 14 14 14 15 14 13 13 12 12 14 13 12 13 13 12 13 13 12 12 12 11 11 11 11 10 10 10 9 10 11 12 12 12 13 13 12 15 15 13 13 14 15 16 16 16 16 17 17 17 17 17 17 19 19 19 18 18 18 18 18 18 17 17 18 18 17
21 19 21 22 21 20 20 21 22 21 20 20 19 18 17 16 16 16 15 14 14 14 15 15 14 15 14 14 15 15 13 13 14 13 15 16 14 14 14 13 12 12 12 12 12 12 12 12 12 13 14 14 15 15 15 17 17 16 15 15 17 18 18 17 17 18 18 18 18 19 19 19 20 20 20 21 21 20 20 20 20 19 19 20 20
22 21 21 22 23 22 22 22 22 22 22 22 21 19 18 16 16 17 16 15 16 16 15 16 16 16 16 15 16 18 15 13 13 14 15 16 16 16 16 15 14 14 14 15 15 14 14 13 14 14 14 15 15 16 16 17 17 17 17 16 17 19 19 19 18 18 19 19 19 20 20 20 21 21 22 23 23 23 22 22 22 22 22 22 23
23 23 22 22 23 23 22 22 23 23 23 22 22 21 19 17 16 16 16 16 16 17 16 16 16 17 17 17 17 18 17 16 15 16 16 16 16 17 18 17 16 16 16 17 17 16 15 15 15 15 16 16 16 16 16 17 18 18 18 17 17 19 20 20 19 20 19 20 21 21 21 22 22 22 23 24 24 25 25 24 24 24 25 25 26
24 24 24 24 24 23 22 23 23 23 24 23 22 21 20 18 17 16 17 17 17 17 17 16 16 17 18 18 18 18 17 17 17 18 18 18 17 17 18 18 18 18 18 18 19 18 17 17 17 17 18 18 17 17 17 17 18 19 19 19 18 20 21 21 21 20 20 21 22 22 23 24 24 25 25 25 26 27 27 27 26 26 26 27 27
24 24 24 25 25 24 24 23 22 22 24 23 22 21 21 19 18 18 18 17 18 18 17 17 17 18 19 19 19 19 18 17 16 16 18 19 18 19 19 19 18 18 19 19 20 19 19 19 19 20 20 20 19 19 19 18 19 20 21 21 20 21 22 22 23 22 22 23 24 25 26 26 26 27 27 28 29 30 30 30 29 29 29 29 29
23 22 22 24 24 24 24 24 22 21 23 23 22 21 20 20 20 19 19 18 19 19 18 19 18 18 19 20 20 20 17 15 13 11 14 16 16 17 19 19 19 19 20 20 21 20 20 20 21 21 20 21 21 21 20 18 17 18 20 20 20 22 23 23 23 24 25 26 27 27 28 29 29 30 30 31 32 32 32 32 32 33 33 33 33
23 22 21 22 24 24 24 25 24 22 21 22 22 21 21 21 21 21 20 20 20 19 19 20 20 19 19 19 21 21 18 15 13 12 14 16 17 17 17 18 19 20 21 22 22 22 21 21 21 21 21 20 21 21 21 19 18 18 19 21 22 24 25 26 26 27 28 30 30 30 31 32 32 33 33 34 33 32 32 33 33 34 35 36 37
22 22 22 23 24 24 24 25 25 24 22 23 23 23 23 22 22 22 22 21 20 20 20 20 21 21 20 20 20 21 20 18 17 18 20 21 21 19 17 17 17 19 21 22 22 22 21 21 21 22 22 21 21 21 21 20 18 18 20 22 25 27 28 28 29 30 31 32 33 33 34 34 34 35 35 35 34 33 33 33 34 35 36 37 38
23 23 24 25 24 24 25 24 24 25 25 24 24 24 24 23 22 22 22 20 19 19 19 20 21 21 21 22 22 22 23 23 23 24 24 23 23 20 18 17 17 19 21 21 22 22 21 21 21 22 22 23 23 22 21 19 17 18 17 15 18 23 26 26 27 29 30 31 31 32 33 34 34 33 33 34 33 33 33 33 34 35 36 37 38
24 24 24 25 25 25 25 24 23 24 26 25 24 24 23 21 20 19 18 18 17 16 16 16 18 20 20 20 21 22 22 23 25 27 26 24 23 22 21 21 21 21 22 23 24 24 24 24 24 24 24 23 24 23 22 22 21 18 11 7 6 9 13 17 21 24 24 25 27 28 29 29 30 29 28 30 31 31 32 33 34 35 36 36 37
22 23 24 24 25 25 25 24 23 22 24 25 23 21 20 19 17 15 14 15 15 14 14 15 15 17 17 17 18 18 19 19 20 22 23 23 23 24 24 24 23 22 23 25 25 26 27 27 27 27 26 25 23 24 24 25 25 18 8 3 2 2 5 7 12 18 19 19 22 23 25 26 25 25 26 27 27 27 28 30 32 34 35 36 36
22 22 23 24 23 24 24 23 22 21 21 22 22 20 18 18 17 15 13 13 14 13 13 14 15 15 16 16 15 15 15 16 17 19 20 22 23 24 24 23 22 21 22 25 26 25 24 26 27 27 27 26 25 24 23 23 24 23 17 9 3 2 3 3 7 11 12 14 18 21 24 25 24 24 25 26 25 26 27 29 31 33 35 35 36
21 20 19 20 20 19 21 20 20 20 19 19 21 21 19 19 19 19 17 15 15 15 15 14 14 15 15 15 14 14 14 15 17 18 19 20 22 23 23 22 22 22 23 24 24 22 22 24 24 24 25 26 25 24 23 22 22 25 26 22 18 14 10 7 6 5 8 13 18 20 21 23 23 24 25 26 26 27 28 29 33 35 35 36 37
16 17 17 17 17 16 17 19 19 19 19 17 19 22 21 19 19 19 18 17 16 15 14 13 12 12 11 10 11 12 13 13 15 16 17 18 19 20 21 22 23 23 23 23 24 24 25 26 25 25 27 27 27 26 26 25 22 23 26 28 29 29 25 17 8 6 8 11 15 19 21 22 23 26 27 28 28 28 30 32 35 37 37 38 38
14 15 17 17 16 14 15 17 17 17 19 18 18 21 22 20 19 17 16 16 15 13 11 10 10 10 10 9 8 9 9 9 11 12 14 15 16 17 18 20 21 21 23 25 26 28 28 26 26 28 29 29 29 28 28 26 23 22 24 26 28 30 30 26 21 15 8 7 12 18 22 24 26 28 29 30 31 31 32 35 38 38 39 40 39
12 13 15 17 16 15 15 16 16 16 18 19 18 19 20 20 19 17 15 14 12 11 10 9 8 8 8 8 9 10 9 8 9 10 12 13 14 15 16 17 18 20 22 23 24 24 25 26 28 29 29 30 29 28 27 26 25 24 23 22 24 25 25 25 26 22 13 9 10 11 16 19 21 27 30 31 32 33 34 37 39 38 38 40 39
10 11 12 15 16 16 16 16 16 15 17 19 18 19 18 17 17 16 14 12 10 10 10 9 9 9 8 9 10 11 12 12 12 12 13 14 14 15 15 16 17 18 19 20 20 21 23 24 26 26 26 27 27 27 28 29 29 27 25 23 21 19 18 18 20 20 16 13 11 11 16 17 15 23 31 31 32 33 34 36 37 39 39 39 38
10 11 12 14 15 16 17 16 15 14 15 17 17 17 17 15 14 13 12 11 10 9 9 8 9 9 10 11 11 11 12 12 13 13 13 14 15 16 16 16 17 18 18 19 19 20 21 23 23 23 25 26 27 28 28 29 28 28 27 26 25 23 21 19 19 18 15 12 10 10 18 21 19 25 30 28 29 31 32 34 36 38 39 38 36
Wind_Direction
126 124 119 107 95 80 63 77 88 85 85 86 90 91 89 84 79 78 76 77 79 81 83 84 85 83 80 78 76 75 74 72 71 68 68 68 67 68 72 72 73 75 74 70 69 70 68 68 68 69 70 70 72 72 73 74 76 77 78 78 78 76 75 75 74 76 77 79 80 79 78 77 78 79 80 80 82 81 80 86 90 87 83 83 83
129 126 121 112 100 90 75 83 92 88 87 86 87 95 100 90 77 69 68 74 74 77 82 86 86 84 81 77 74 73 74 74 74 72 71 71 71 72 73 73 74 74 72 70 71 70 69 70 70 72 74 74 75 75 77 78 80 81 81 82 81 79 77 75 74 72 72 79 82 84 83 81 81 82 83 83 84 83 83 86 85 82 80 82 82
130 127 122 118 109 99 89 94 100 96 91 86 88 99 103 92 78 66 65 75 78 80 83 85 85 82 81 79 75 72 73 73 72 73 71 69 71 73 73 73 74 75 73 71 71 71 72 73 73 74 76 78 80 80 82 83 84 85 85 86 84 81 78 76 75 71 68 70 78 83 85 83 82 83 84 84 85 85 84 84 83 82 81 80 80
130 127 121 119 111 101 94 105 110 104 96 88 91 97 97 91 84 72 72 84 88 89 87 85 83 82 81 79 77 74 74 74 73 74 71 69 74 74 74 76 76 76 73 70 70 71 72 75 75 76 77 78 79 81 87 89 88 88 88 88 86 84 80 76 74 75 73 68 71 78 81 81 80 81 84 83 80 78 77 77 78 79 79 79 79
130 125 121 115 105 96 93 105 112 109 98 89 93 92 92 94 88 77 78 87 89 90 87 85 83 82 84 82 79 78 76 76 76 75 70 70 76 77 77 77 77 76 73 72 72 72 73 75 77 77 78 78 78 81 88 92 91 91 91 91 90 86 82 78 76 76 78 75 73 75 79 80 78 79 82 81 76 73 69 67 69 72 73 74 74
128 124 120 114 107 98 93 103 112 112 100 93 94 92 96 95 90 86 83 81 83 84 81 81 82 83 84 85 83 81 80 79 77 76 76 75 79 79 77 78 79 78 75 74 73 74 75 75 77 77 77 78 79 79 84 89 90 92 94 94 90 84 79 75 75 76 78 80 78 77 80 79 77 76 78 78 77 78 76 72 71 72 72 72 71
128 126 124 121 114 104 96 103 117 118 110 104 98 98 100 94 95 98 93 88 88 86 84 82 81 82 81 83 86 84 83 82 79 79 83 78 78 79 78 82 80 76 74 73 74 75 77 77 77 77 78 78 79 79 81 83 89 94 98 95 87 81 77 73 74 77 78 79 79 80 81 81 81 78 77 78 78 81 82 79 75 76 75 76 75
128 128 131 129 114 109 101 102 122 127 120 113 104 102 102 97 97 98 96 95 93 92 92 87 83 80 78 85 90 88 86 85 83 82 83 78 79 81 79 83 80 77 76 75 77 79 80 81 80 79 79 79 78 79 80 84 95 99 97 91 83 78 74 73 73 72 74 76 76 76 76 79 80 76 76 80 80 79 79 78 77 80 78 77 79
128 130 138 131 115 113 103 102 123 131 124 118 111 104 104 99 93 90 90 92 95 95 91 84 80 73 72 89 97 95 92 89 86 83 85 85 84 82 81 84 82 80 78 76 79 81 81 82 81 80 81 82 80 80 82 89 100 99 92 87 81 76 72 70 68 67 70 75 76 73 73 73 73 72 70 75 77 78 79 81 83 83 78 75 75
128 132 139 127 120 114 103 104 121 132 130 125 118 107 105 102 93 83 82 91 94 90 86 80 75 69 73 94 102 101 97 93 88 86 89 90 85 84 85 85 85 85 81 78 80 81 81 81 82 82 83 85 85 85 87 93 102 100 92 86 78 73 73 68 69 74 70 71 72 69 69 66 64 63 61 64 69 70 70 75 79 77 74 75 76
128 133 138 127 123 113 106 108 119 131 133 132 124 112 111 110 102 92 89 92 88 85 84 82 80 78 85 96 101 102 100 94 90 88 91 91 88 88 88 83 83 88 87 83 82 84 84 84 84 84 84 85 88 89 92 98 103 103 94 85 78 72 71 70 76 83 80 79 79 77 74 69 67 63 59 63 65 62 59 63 69 72 74 76 79
131 136 136 128 122 114 110 109 119 129 133 137 130 120 120 116 107 105 108 101 89 91 88 83 87 89 93 98 100 103 101 96 92 92 95 94 91 89 86 82 81 85 88 84 82 86 87 87 87 85 83 82 86 89 94 98 100 103 95 86 80 73 71 71 75 78 79 80 73 75 74 69 73 72 68 69 68 65 64 66 68 72 76 79 81
136 139 135 131 123 117 113 112 119 126 133 138 135 129 129 123 110 109 115 109 101 98 90 88 98 98 97 102 102 101 102 100 95 94 99 96 89 86 85 86 87 88 88 83 83 89 89 88 89 86 84 81 83 91 94 95 98 99 94 89 83 76 72 65 70 77 80 78 69 72 73 65 66 69 73 74 70 70 70 72 73 74 77 79 80
136 137 139 137 127 121 117 116 118 122 131 136 136 135 137 132 115 109 108 106 105 98 99 100 105 105 100 106 109 104 102 102 101 99 101 100 92 90 90 89 87 88 89 84 83 89 91 90 89 88 88 83 81 89 96 96 96 98 97 92 87 83 77 69 70 75 81 85 84 86 79 70 64 69 77 73 69 72 73 73 75 74 75 78 78
135 138 145 143 132 127 122 119 119 121 128 133 137 139 141 139 124 115 112 107 106 100 104 108 104 107 104 104 115 116 108 105 113 108 100 101 98 92 90 89 87 87 88 82 80 86 94 97 96 95 94 89 84 86 95 99 98 102 99 93 92 87 82 83 76 67 70 69 74 80 77 75 70 75 76 71 74 77 76 73 73 74 74 77 78
142 144 145 144 137 131 128 125 124 123 126 132 139 142 145 146 138 128 125 119 112 106 106 110 105 108 108 103 112 127 123 116 119 113 101 103 100 93 93 99 96 91 87 81 81 88 96 101 102 100 96 90 85 84 89 98 101 105 103 98 98 88 77 81 79 75 69 56 66 76 78 72 63 74 77 74 82 79 77 73 72 74 75 78 80
145 145 145 145 144 138 136 134 132 132 129 133 138 142 148 152 150 144 141 131 119 116 117 117 111 111 110 101 106 128 135 126 120 119 111 108 106 102 101 108 106 100 98 90 81 90 99 98 96 95 90 86 83 84 85 92 100 104 109 107 95 81 73 71 70 72 69 77 98 89 74 62 55 74 80 78 82 81 78 72 71 74 76 79 82
144 147 152 146 146 147 144 143 142 140 136 135 139 143 148 152 156 156 146 135 127 121 124 125 121 120 110 99 105 122 137 134 128 128 117 107 115 108 93 95 106 105 105 95 73 83 102 98 94 94 86 81 80 86 87 89 97 101 104 102 86 72 70 69 61 58 66 93 110 85 62 66 72 78 77 81 85 82 78 72 73 76 78 81 84
148 152 156 146 144 153 151 150 151 145 144 141 141 145 147 148 156 161 149 141 139 125 125 129 125 122 106 99 108 119 135 144 141 139 126 117 125 121 105 101 104 100 92 81 69 75 102 103 97 98 86 76 76 85 90 91 101 103 95 87 75 65 64 65 58 47 48 74 86 51 39 62 90 84 79 83 82 80 74 72 72 79 82 80 85
161 160 158 154 150 159 156 150 153 141 140 147 147 150 147 147 155 161 157 151 147 136 131 127 121 113 100 100 108 113 122 142 153 153 146 131 132 140 137 129 111 106 95 74 64 66 97 113 107 109 91 68 70 80 85 89 99 98 88 81 71 60 59 55 49 42 21 14 21 19 29 60 84 88 94 88 77 76 69 68 72 80 81 77 83
174 170 161 163 158 164 161 144 151 144 143 169 171 158 154 149 152 158 160 161 157 149 139 129 122 106 96 97 98 90 95 112 133 152 162 145 139 147 154 164 150 139 106 68 56 62 96 124 118 118 97 69 71 72 70 81 87 81 88 89 76 59 52 43 41 46 36 2 342 3 42 81 98 97 95 95 83 76 74 74 74 79 78 82 88
179 180 171 173 167 168 168 151 156 159 155 172 186 169 168 156 149 153 159 165 166 163 156 147 132 112 102 100 94 70 80 105 90 125 156 155 157 156 148 171 185 219 290 69 68 81 110 113 105 112 105 89 82 67 50 52 67 79 103 90 62 50 39 30 37 32 9 339 336 14 64 85 115 120 104 111 98 78 82 77 71 80 82 87 92
179 187 182 181 180 174 175 165 164 169 163 169 180 187 181 163 153 157 163 166 170 175 171 166 149 129 119 111 116 106 122 177 190 123 146 131 147 157 149 169 212 239 284 230 187 115 112 105 103 112 106 90 80 67 34 31 60 76 106 84 52 44 33 18 27 19 325 307 315 165 83 83 114 125 112 138 119 106 103 81 77 96 103 103 108
180 189 188 186 188 183 182 177 173 174 172 177 177 187 185 160 166 172 167 174 175 173 172 176 173 168 132 115 148 179 182 207 216 214 194 145 145 160 173 189 226 205 124 104 186 153 121 111 124 117 103 87 79 87 359 1 39 57 76 67 37 10 10 355 336 343 303 286 274 240 168 125 153 155 130 226 171 217 152 62 91 134 158 152 147
180 184 189 188 189 188 187 184 184 179 179 183 170 178 182 159 179 195 170 199 193 170 176 186 185 209 152 118 208 210 195 222 219 197 176 140 90 140 153 107 66 108 110 74 109 165 127 98 138 126 96 77 75 124 234 322 350 340 354 31 358 308 302 322 316 284 281 278 274 260 222 198 200 208 270 222 225 274 270 305 276 233 217 208 199
180 180 186 189 189 189 189 187 191 188 185 187 172 178 183 166 180 189 184 210 225 178 184 199 197 215 177 143 229 216 186 229 223 141 153 254 331 70 86 84 38 69 125 125 277 205 130 240 195 131 88 58 109 204 210 218 232 260 293 293 268 259 248 264 292 275 269 274 278 272 246 239 231 231 247 227 235 252 258 277 266 260 254 240 232
179 181 184 186 192 191 190 191 193 193 189 188 182 187 187 176 184 190 191 198 215 207 191 205 213 225 199 174 222 214 179 221 241 138 159 228 270 49 84 175 243 264 156 157 213 234 180 221 236 137 136 212 219 219 217 216 210 212 232 250 248 238 229 239 265 268 266 272 279 281 267 258 246 232 236 236 236 242 251 254 249 248 245 249 248
177 181 185 186 193 193 191 192 194 196 191 187 189 194 189 182 188 193 191 192 208 219 205 203 212 231 223 197 206 208 185 209 235 189 177 201 217 195 193 218 234 247 214 174 219 241 209 211 223 214 218 222 230 233 231 227 221 220 224 241 250 242 234 236 249 257 260 265 270 276 272 268 258 247 248 238 234 247 252 246 254 247 237 251 252
177 180 185 189 192 193 194 194 195 197 194 191 191 196 194 188 190 194 195 196 202 212 214 208 210 227 234 214 199 195 200 209 221 223 200 194 206 206 202 223 231 229 231 211 233 255 233 216 218 229 238 240 245 253 256 244 233 235 235 247 257 251 245 239 241 247 254 260 263 271 274 271 265 257 255 243 235 249 255 249 253 242 239 253 250
181 184 186 190 193 192 195 197 196 197 197 195 194 198 200 197 197 200 201 202 201 202 210 216 220 227 231 230 213 197 197 211 222 224 214 202 209 218 212 216 224 228 235 228 239 257 242 230 233 238 247 248 246 251 261 260 250 249 243 242 248 250 247 244 246 248 246 248 252 262 270 271 268 261 257 251 243 243 247 246 243 241 247 251 245
184 187 188 192 194 192 194 198 198 199 198 196 197 200 204 204 203 206 207 207 205 202 205 214 224 224 227 241 238 217 200 202 224 224 217 215 215 223 224 219 225 233 240 238 240 249 240 234 241 245 245 246 250 249 252 257 256 255 254 251 250 250 249 245 248 250 246 243 245 249 258 264 264 264 261 256 250 243 241 244 242 243 248 248 244
188 189 191 192 194 192 193 197 198 201 201 199 200 201 204 208 204 206 211 212 211 209 207 208 220 221 223 240 248 244 220 202 214 222 217 221 222 228 230 227 229 236 244 245 242 248 242 233 238 245 243 241 246 247 247 256 256 252 256 262 262 259 257 250 245 247 247 246 245 242 248 257 259 261 262 260 257 249 243 242 243 244 245 247 245
195 193 193 194 195 195 195 196 198 202 202 201 203 203 203 208 209 209 215 218 216 216 213 208 219 222 219 234 244 250 239 214 213 221 220 221 224 229 231 230 231 236 244 246 245 251 249 243 243 248 249 243 244 245 242 251 260 256 249 255 262 265 265 259 252 251 249 249 250 247 246 251 257 260 261 262 260 255 249 245 245 246 245 243 241
199 196 195 196 197 198 199 197 198 201 204 202 203 205 204 206 212 214 216 220 218 220 220 213 218 221 217 228 239 242 241 228 222 224 228 227 224 227 232 234 235 236 239 245 249 252 254 253 252 256 259 256 253 253 249 251 261 264 258 252 254 263 267 264 262 260 256 252 252 254 251 249 252 258 261 263 263 261 256 250 247 247 246 242 243
199 198 197 198 198 200 201 200 201 202 204 205 203 205 206 205 210 215 216 217 219 224 226 220 220 223 220 223 234 236 234 230 230 231 234 235 231 231 236 239 241 238 237 245 253 257 259 259 258 259 263 264 262 260 256 256 261 265 267 261 255 261 265 264 263 264 262 257 254 256 257 253 252 254 256 260 263 263 261 257 252 249 247 246 248
199 199 198 198 197 199 202 202 203 203 205 208 206 205 208 207 209 215 219 218 222 227 229 228 228 229 227 226 232 237 233 226 227 233 236 238 237 236 240 242 240 239 240 246 253 259 261 261 260 258 261 263 264 264 260 258 260 263 266 263 258 260 263 264 263 264 264 260 259 259 256 256 256 255 255 257 259 261 262 261 258 255 252 249 249
199 199 198 197 196 197 201 201 203 203 203 208 209 207 209 208 208 214 221 222 224 228 230 233 233 232 231 230 232 237 238 232 230 234 236 237 237 235 238 242 242 243 244 247 253 259 260 259 258 258 259 258 258 260 261 259 258 260 263 261 258 259 260 261 263 264 263 260 262 263 260 258 257 256 256 256 257 258 260 262 261 260 257 253 251
199 201 200 200 199 198 201 202 202 203 202 206 210 208 208 208 209 215 220 221 223 227 230 234 234 232 233 235 238 238 241 249 248 242 239 238 239 237 238 243 248 249 248 249 254 258 258 256 257 258 257 256 254 254 258 260 260 262 263 262 259 258 260 261 262 262 261 260 262 264 266 265 262 260 258 256 257 257 257 259 259 260 260 258 256
197 199 200 202 200 199 203 203 201 203 202 204 208 208 208 210 212 216 220 222 223 225 228 232 235 236 237 238 241 240 242 253 253 243 243 244 246 247 244 244 246 249 250 252 254 256 257 256 256 257 256 256 258 257 257 259 263 263 262 263 261 260 261 261 262 262 262 263 265 265 267 267 268 266 264 263 261 260 259 258 257 257 259 259 259
194 195 198 199 199 198 201 204 202 201 201 201 204 207 208 209 212 215 219 223 224 225 228 231 235 240 243 242 241 241 243 249 253 254 255 255 257 257 255 253 250 249 250 252 254 255 257 258 257 256 255 256 258 260 259 255 257 260 260 260 259 260 262 262 263 264 266 267 268 267 267 267 268 268 268 267 265 263 262 261 260 259 259 260 260
193 194 196 197 199 198 199 206 205 200 199 199 200 203 205 206 209 214 217 221 225 227 229 231 233 237 241 243 243 242 241 248 261 262 256 256 257 255 257 260 257 254 252 255 257 257 258 259 260 257 253 252 254 258 260 257 255 259 262 262 263 265 268 269 270 271 271 271 270 268 268 268 268 269 268 267 266 264 264 264 264 263 262 262 262
194 195 198 199 201 200 201 206 206 202 201 201 202 203 206 207 208 213 215 219 224 227 229 231 235 238 241 243 245 244 242 247 255 253 248 250 251 249 255 260 258 255 254 257 260 258 257 255 254 253 252 253 256 259 260 255 251 254 263 272 277 277 275 273 275 277 276 274 272 270 269 269 268 270 270 268 266 266 266 267 267 267 265 264 263
198 199 201 203 203 203 204 204 204 205 204 204 205 206 208 209 210 214 215 218 223 229 232 234 237 241 244 247 248 247 247 249 250 248 245 246 247 250 257 260 259 257 258 262 263 259 256 254 253 253 254 256 259 261 258 252 250 253 261 272 278 286 280 269 267 274 278 276 273 271 270 270 270 272 271 268 267 266 268 269 269 270 269 269 267
199 201 202 204 205 205 206 204 204 206 206 205 206 207 208 208 209 212 214 216 219 225 231 232 235 239 243 249 252 252 250 250 250 248 247 248 250 254 257 258 258 260 263 264 264 262 260 259 258 258 256 253 254 258 255 251 251 249 247 250 254 297 274 262 267 275 279 274 270 268 267 267 267 269 267 265 267 268 271 273 272 272 272 272 272
201 202 204 204 205 206 206 205 205 205 206 206 204 203 203 203 204 204 208 213 213 217 222 224 228 234 240 245 249 253 252 252 252 253 252 254 256 256 255 255 255 259 264 265 264 264 265 264 262 260 257 251 251 255 254 252 253 251 246 243 263 287 252 289 301 287 278 269 269 271 269 266 266 266 264 263 266 269 272 275 275 275 275 274 274
202 200 201 202 202 205 206 204 203 202 203 205 202 199 197 197 199 201 205 209 213 219 225 227 229 233 240 245 247 248 249 252 255 257 257 258 259 258 256 257 259 262 265 265 263 263 267 268 265 261 258 256 254 254 254 255 256 257 253 250 254 255 260 298 324 300 283 276 276 278 274 272 270 266 263 263 265 268 272 276 277 276 274 275 275
199 198 195 193 194 197 199 198 197 197 197 199 201 199 198 198 198 204 209 212 216 222 230 234 234 236 242 251 253 249 248 256 261 262 263 264 265 264 261 261 262 263 264 262 261 263 264 265 264 262 262 262 256 251 254 256 253 253 254 253 254 254 259 269 275 284 295 283 275 275 274 273 273 270 267 265 267 271 275 280 281 279 278 278 278
195 196 192 187 185 184 185 187 188 191 192 193 197 198 200 201 202 205 210 214 218 221 226 231 235 240 243 247 253 249 245 252 259 260 263 266 268 268 267 265 263 265 266 265 264 263 262 263 264 265 264 263 260 255 255 256 251 251 255 255 256 257 259 260 259 264 278 290 283 279 276 274 273 272 271 269 270 271 276 282 283 281 282 283 282
187 193 194 190 186 180 177 177 180 185 189 189 193 196 199 201 203 205 208 213 217 216 221 226 233 237 233 232 239 242 242 247 255 257 258 262 267 271 273 273 272 272 270 268 269 269 269 270 267 265 264 264 263 259 257 257 257 258 260 257 256 257 258 260 261 258 254 266 280 284 283 282 276 272 271 270 271 273 278 283 282 280 282 283 283
179 183 185 185 184 180 175 173 176 184 187 188 191 193 193 196 200 202 206 211 215 218 221 224 233 237 232 231 235 240 245 249 255 259 261 263 265 269 274 279 280 279 277 276 278 279 278 276 272 268 268 268 266 263 261 262 262 262 263 260 256 253 253 257 256 250 246 252 262 275 280 280 276 275 275 272 271 276 280 281 281 280 281 282 282
154 161 160 162 165 168 167 166 171 179 183 184 186 188 186 185 187 191 196 201 204 210 217 224 240 250 251 251 249 250 252 254 258 263 269 272 269 268 271 276 278 278 282 284 286 287 286 285 282 278 276 272 269 266 264 264 265 264 264 261 257 254 250 251 251 246 239 241 257 274 277 277 276 276 278 276 275 278 278 277 278 279 282 282 282